Skip Page Navigation
NASA JPL Caltech
NASA Logo - Jet Propulsion Laboratory + View the NASA Portal
+ Center for Near-Earth Object Studies
JPL Home Earth Solar System Stars & Galaxies Technology
JPL Solar System Dynamics
BODIES ORBITS EPHEMERIDES TOOLS PHYSICAL DATA DISCOVERY FAQ SITE MAP
JPL Small-Body Database Browser
Search: [ help ]  
351545 (2005 TE15)
Classification: Apollo [NEO]          SPK-ID: 2351545
Ephemeris | Orbit Diagram | Orbital Elements | Mission Design | Physical Parameters | Discovery Circumstances | Close-Approach Data ]

[ hide orbit diagram ]

For accurate long-term ephemerides, please instead use our Horizons system.This orbit viewer was implemented using two-body methods, and hence should not be used for determining accurate long-term trajectories (over several years or decades) or planetary encounter circumstances.


Orbital Elements at Epoch 2459200.5 (2020-Dec-17.0) TDB
Reference: JPL 80 (heliocentric ecliptic J2000)
 Element Value Uncertainty (1-sigma)   Units 
e .3435390987720494 4.1334e-08  
a 1.204354484539833 2.4242e-09 au
q .7906116303189427 5.1077e-08 au
i 13.12820532534096 4.9874e-06 deg
node 10.89045421310625 1.522e-05 deg
peri 241.1962715168584 1.6091e-05 deg
M 250.1518926467602 1.1255e-05 deg
tp 2459347.805853865755
(2021-May-13.30585387)
1.5261e-05 TDB
period 482.7584987071496
1.32
1.4576e-06
3.991e-09
d
yr
n .7457144741399629 2.2515e-09 deg/d
Q 1.618097338760723 3.257e-09 au
  Orbit Determination Parameters
   # obs. used (total)      315  
   data-arc span      5624 days (15.40 yr)  
   first obs. used      2005-10-04  
   last obs. used      2021-02-26  
   planetary ephem.      DE431  
   SB-pert. ephem.      SB431-N16  
   condition code      0  
   norm. resid. RMS      .5012  
   source      ORB  
   producer      Otto Matic  
   solution date      2021-Feb-27 05:51:44  

Additional Information
 Earth MOID = .0551692 au 
 Jupiter MOID = 3.4607 au 
 T_jup = 5.200 
[ show covariance matrix ]

Ephemeris | Orbit Diagram | Orbital Elements | Mission Design | Physical Parameters | Discovery Circumstances | Close-Approach Data ]

Physical Parameter Table
Parameter Symbol Value Units Sigma Reference Notes
absolute magnitude H 19.7   n/a MPO264878  

351545 (2005 TE15)          Discovered 2005-Oct-04 by NEAT at Palomar
Reference: 20130127/Numbers.arcLast Updated: 2013-01-31

[ show close-approach data ]
Ephemeris | Orbit Diagram | Orbital Elements | Mission Design | Physical Parameters | Discovery Circumstances | Close-Approach Data ]
ABOUT SSD CREDITS/AWARDS PRIVACY/COPYRIGHT GLOSSARY LINKS
FirstGov 2021-Mar-02 09:17 UT
(server date/time)  
NASA Home Page
Site Manager:   Ryan S. Park
Webmaster  Alan B. Chamberlin